Flag for Moldova Weather past 2 weeks in Bălți, Moldova

Now
59 °F

Scattered clouds.


Feels Like: 57 °F
Forecast: 46 / 68 °F
Wind: 12 mph from East

Location: Baltsi-Leadoveni - The North of Moldova


UV Index: 5 (Moderate)

Visibility: N/A


Pressure: 30.09 "Hg

Humidity: 68%

Dew point: 48 °F

Location of BălțiLocation

Historic Weather in Bălți

°F

Bălți temperature yesterday

Maximum temperature yesterday: 72 °F (at 12:30 PM)
Minimum temperature yesterday: 54 °F (at 5:30 AM)
Average temperature yesterday: 61 °F

Past Weeks' High & Low Weather Summary

 TemperatureHumidityPressure
High72 °F (Apr 24, 12:30 PM)100% (Apr 10, 11:30 PM)30.12 "Hg (Apr 10, 11:30 PM)
Low37 °F (Apr 12, 6:30 AM)33% (Apr 18, 5:00 PM)29.71 "Hg (Apr 15, 12:00 AM)
Average52 °F80%29.96 "Hg
* Reported Apr 10 10:00 AM — Apr 25 10:00 AM, Bălți, Weather by CustomWeather, © 2014

Note: Actual official high and low records may vary slightly from our data, if they occured in-between our weather recording intervals... More about our weather records

Advertising

Historic Weather Conditions — Data for Previous 24 hours

 ConditionsComfort  
Time TempWeatherWind HumidityBarometerVisibility
10:00 AM
Apr 25
55 °FBroken clouds.14 mph72%30.09 "HgN/A
9:30 AM55 °FBroken clouds.14 mph72%30.09 "HgN/A
9:00 AM55 °FScattered clouds.15 mph72%30.09 "HgN/A
8:30 AM54 °FPassing clouds.14 mph77%30.07 "HgN/A
8:00 AM54 °FCool.10 mph82%30.07 "HgN/A
7:30 AM55 °FCool.12 mph88%30.07 "HgN/A
7:00 AM55 °FCool.10 mph88%30.07 "HgN/A
6:30 AM55 °FCool.9 mph88%30.07 "HgN/A
6:00 AM54 °FCool.8 mph100%30.07 "HgN/A
5:30 AM54 °FCool.10 mph94%30.04 "HgN/A
5:00 AM54 °FCool.10 mph94%30.04 "HgN/A
4:30 AM55 °FCool.10 mph88%30.04 "HgN/A
4:00 AM55 °FCool.9 mph94%30.07 "HgN/A
3:30 AM55 °FCool.9 mph94%30.07 "HgN/A
3:00 AM55 °FCool.12 mph94%30.04 "HgN/A
2:30 AM55 °FCool.12 mph94%30.07 "HgN/A
2:00 AM55 °FCool.10 mph94%30.07 "HgN/A
1:30 AM57 °FCool.10 mph88%30.07 "HgN/A
1:00 AM55 °FCool.9 mph88%30.07 "HgN/A
12:30 AM57 °FCool.10 mph82%30.07 "HgN/A
12:00 AM57 °FCool.9 mph82%30.07 "HgN/A
11:30 PM
Apr 24
57 °FCool.9 mph82%30.07 "HgN/A
11:00 PM59 °FCool.8 mph77%30.07 "HgN/A
10:30 PM61 °FCool.10 mph72%30.04 "HgN/A
10:00 PM61 °FCool.8 mph72%30.04 "HgN/A
9:30 PM59 °FCool.8 mph77%30.04 "HgN/A
9:00 PM61 °FCool.9 mph72%30.04 "HgN/A
8:30 PM61 °FCool.7 mph72%30.04 "HgN/A
8:00 PM61 °FCool.6 mph77%30.04 "HgN/A
7:30 PM61 °FCool.5 mph77%30.01 "HgN/A
7:00 PM61 °FSprinkles. Scattered clouds.6 mph77%30.01 "HgN/A
6:30 PM59 °FSprinkles. Scattered clouds.1 mph82%30.01 "HgN/A
6:00 PM61 °FSprinkles. Scattered clouds.9 mph72%30.04 "HgN/A
5:30 PM63 °FScattered clouds.13 mph73%30.04 "HgN/A
5:00 PM66 °FScattered clouds.16 mph64%30.01 "HgN/A
4:30 PM66 °FScattered clouds.12 mph60%30.01 "HgN/A
4:00 PM68 °FScattered clouds.9 mph49%30.01 "HgN/A
3:30 PM66 °FPassing clouds.13 mph52%30.04 "HgN/A
3:00 PM66 °FPassing clouds.12 mph64%30.04 "HgN/A
2:30 PM70 °FThunderstorms. Scattered clouds.9 mph57%30.04 "HgN/A
2:00 PM72 °FScattered clouds.7 mph50%30.04 "HgN/A
1:30 PM68 °FScattered clouds.7 mph53%30.04 "HgN/A
1:00 PM70 °FScattered clouds.7 mph53%30.04 "HgN/A
12:30 PM72 °FScattered clouds.7 mph50%30.07 "HgN/A
12:00 PM70 °FScattered clouds.6 mph57%30.07 "HgN/A
11:30 AM68 °FPassing clouds.5 mph60%30.07 "HgN/A
11:00 AM66 °FPassing clouds.6 mph64%30.07 "HgN/A
Weather by CustomWeather, © 2014

See weather overview